RYR5RT LIBD-LATI

Flight info

Callsign RYR5RT
Flight time 0h 35m
Altitude 30000
Route DOLON L612 KAPPO P92 DIRES
Aircraft B738/M-SDE2E3FGHIRWXY/LB1

Departure

Time 2026-04-22 17:39
Airport Bari Karol Wojtyła International Airport (LIBD)

Arrival

Time 2026-04-22 18:14
Airport Tirana International Airport Mother Teresa (LATI)
Time Latitude Longitude Altitude Speed Heading
2026-04-22 16:46 41.13680 16.76709 135 ft 0 kts 206°
2026-04-22 17:30 41.13676 16.76685 135 ft 5 kts 280°
2026-04-22 17:30 41.13714 16.76672 135 ft 9 kts
2026-04-22 17:30 41.13764 16.76741 133 ft 14 kts 68°
2026-04-22 17:30 41.13824 16.76766 129 ft 11 kts 342°
2026-04-22 17:31 41.13883 16.76830 124 ft 14 kts 69°
2026-04-22 17:31 41.13916 16.76946 120 ft 13 kts 69°
2026-04-22 17:31 41.13948 16.77060 119 ft 14 kts 69°
2026-04-22 17:31 41.13982 16.77179 121 ft 13 kts 69°
2026-04-22 17:32 41.14014 16.77293 122 ft 13 kts 69°
2026-04-22 17:32 41.14070 16.77388 119 ft 14 kts 24°
2026-04-22 17:32 41.14123 16.77411 116 ft 2 kts 15°
2026-04-22 17:32 41.14124 16.77411 116 ft 0 kts 15°
2026-04-22 17:37 41.14134 16.77415 116 ft 6 kts 15°
2026-04-22 17:38 41.14193 16.77412 115 ft 11 kts 338°
2026-04-22 17:38 41.14217 16.77358 116 ft 9 kts 262°
2026-04-22 17:38 41.14189 16.77253 117 ft 21 kts 249°
2026-04-22 17:38 41.14046 16.76747 126 ft 97 kts 249°
2026-04-22 17:39 41.13728 16.75634 167 ft 156 kts 250°
2026-04-22 17:39 41.13331 16.74256 923 ft 160 kts 252°
2026-04-22 17:39 41.12520 16.71368 2354 ft 187 kts 253°
2026-04-22 17:40 41.12043 16.69667 2968 ft 202 kts 253°
2026-04-22 17:40 41.11534 16.67871 3552 ft 213 kts 253°
2026-04-22 17:40 41.11004 16.66015 4366 ft 215 kts 253°
2026-04-22 17:40 41.10476 16.64160 5261 ft 217 kts 253°
2026-04-22 17:41 41.09939 16.62273 6125 ft 219 kts 253°
2026-04-22 17:41 41.09399 16.60373 6939 ft 222 kts 252°
2026-04-22 17:41 41.09058 16.58411 7772 ft 218 kts 276°
2026-04-22 17:41 41.09534 16.56534 8566 ft 217 kts 306°
2026-04-22 17:42 41.10672 16.55231 9376 ft 222 kts 333°
2026-04-22 17:42 41.12196 16.54828 10151 ft 231 kts
2026-04-22 17:42 41.13776 16.55379 10900 ft 239 kts 16°
2026-04-22 17:42 41.15321 16.56244 11653 ft 244 kts 18°
2026-04-22 17:43 41.16891 16.57157 12430 ft 247 kts 17°
2026-04-22 17:43 41.18475 16.58064 13229 ft 250 kts 16°
2026-04-22 17:43 41.20085 16.58973 14029 ft 253 kts 15°
2026-04-22 17:43 41.21717 16.59889 14787 ft 255 kts 15°
2026-04-22 17:44 41.23230 16.61245 15519 ft 277 kts 41°
2026-04-22 17:44 41.24172 16.63611 15974 ft 311 kts 69°
2026-04-22 17:44 41.24376 16.66630 16169 ft 346 kts 92°
2026-04-22 17:44 41.24065 16.69915 16378 ft 373 kts 96°
2026-04-22 17:45 41.23627 16.73408 16768 ft 390 kts 98°
2026-04-22 17:45 41.23152 16.76995 17424 ft 399 kts 97°
2026-04-22 17:45 41.22677 16.80660 18151 ft 405 kts 97°
2026-04-22 17:45 41.22209 16.84386 18771 ft 412 kts 97°
2026-04-22 17:46 41.21748 16.88164 19422 ft 417 kts 96°
2026-04-22 17:46 41.21288 16.91993 20088 ft 422 kts 96°
2026-04-22 17:46 41.20825 16.95864 20716 ft 428 kts 96°
2026-04-22 17:46 41.20356 16.99791 21340 ft 433 kts 96°
2026-04-22 17:47 41.19878 17.03772 21958 ft 439 kts 96°
2026-04-22 17:47 41.19393 17.07796 22562 ft 444 kts 96°
2026-04-22 17:47 41.18804 17.11855 23143 ft 452 kts 104°
2026-04-22 17:47 41.17687 17.15787 23698 ft 459 kts 116°
2026-04-22 17:48 41.16664 17.18252 24037 ft 460 kts 124°
2026-04-22 17:48 41.14017 17.22697 24811 ft 459 kts 135°
2026-04-22 17:48 41.11904 17.25774 25463 ft 457 kts 136°
2026-04-22 17:48 41.09719 17.28903 26166 ft 456 kts 136°
2026-04-22 17:49 41.07567 17.32000 26824 ft 455 kts 136°
2026-04-22 17:49 41.05436 17.35101 27484 ft 455 kts 136°
2026-04-22 17:49 41.03318 17.38210 28117 ft 455 kts 136°
2026-04-22 17:49 41.01207 17.41325 28744 ft 455 kts 136°
2026-04-22 17:50 40.99099 17.44441 29371 ft 454 kts 135°
2026-04-22 17:50 40.96992 17.47554 29952 ft 455 kts 136°
2026-04-22 17:50 40.94862 17.50694 30050 ft 463 kts 136°
2026-04-22 17:51 40.90675 17.56861 30040 ft 456 kts 136°
2026-04-22 17:51 40.86453 17.63070 30041 ft 454 kts 136°
2026-04-22 17:52 40.82222 17.69302 30024 ft 456 kts 136°
2026-04-22 17:52 40.80100 17.72426 29602 ft 459 kts 136°
2026-04-22 17:52 40.77978 17.75547 29152 ft 457 kts 136°
2026-04-22 17:52 40.75863 17.78657 28753 ft 453 kts 136°
2026-04-22 17:53 40.73764 17.81738 28361 ft 450 kts 136°
2026-04-22 17:53 40.71683 17.84789 27969 ft 446 kts 136°
2026-04-22 17:53 40.69614 17.87819 27598 ft 443 kts 136°
2026-04-22 17:53 40.67583 17.90790 27218 ft 441 kts 136°
2026-04-22 17:54 40.65513 17.93815 26842 ft 438 kts 136°
2026-04-22 17:54 40.63615 17.96953 26429 ft 441 kts 121°
2026-04-22 17:54 40.62517 18.00630 26083 ft 437 kts 99°
2026-04-22 17:54 40.62244 18.04559 25720 ft 426 kts 81°
2026-04-22 17:55 40.62520 18.07132 25460 ft 415 kts 68°
2026-04-22 17:55 40.63583 18.11918 24984 ft 409 kts 64°
2026-04-22 17:55 40.64440 18.15470 24614 ft 408 kts 64°
2026-04-22 17:55 40.65300 18.19035 24241 ft 408 kts 64°
2026-04-22 17:56 40.66147 18.22607 23880 ft 407 kts 64°
2026-04-22 17:56 40.66976 18.26174 23472 ft 407 kts 65°
2026-04-22 17:56 40.67793 18.29743 23062 ft 406 kts 65°
2026-04-22 17:56 40.68600 18.33298 22668 ft 404 kts 65°
2026-04-22 17:57 40.69408 18.36883 22288 ft 402 kts 65°
2026-04-22 17:57 40.70200 18.40399 21922 ft 399 kts 65°
2026-04-22 17:57 40.70976 18.43852 21563 ft 397 kts 65°
2026-04-22 17:57 40.71759 18.47332 21203 ft 395 kts 65°
2026-04-22 17:58 40.72536 18.50793 20844 ft 393 kts 66°
2026-04-22 17:58 40.73309 18.54240 20485 ft 391 kts 66°
2026-04-22 17:58 40.74077 18.57668 20134 ft 389 kts 66°
2026-04-22 17:58 40.74839 18.61076 19778 ft 387 kts 66°
2026-04-22 17:59 40.75669 18.64430 19416 ft 380 kts 59°
2026-04-22 17:59 40.76869 18.67479 19078 ft 371 kts 51°
2026-04-22 17:59 40.78177 18.70397 18741 ft 368 kts 51°
2026-04-22 17:59 40.79491 18.73283 18374 ft 367 kts 51°
2026-04-22 18:00 40.80377 18.75238 18116 ft 367 kts 52°
2026-04-22 18:00 40.82091 18.79068 17600 ft 364 kts 52°
2026-04-22 18:00 40.83365 18.81946 17233 ft 362 kts 53°
2026-04-22 18:00 40.84627 18.84812 16876 ft 360 kts 53°
2026-04-22 18:01 40.85884 18.87659 16521 ft 358 kts 53°
2026-04-22 18:01 40.87139 18.90481 16175 ft 355 kts 53°
2026-04-22 18:01 40.88392 18.93284 15829 ft 353 kts 53°
2026-04-22 18:01 40.89639 18.96062 15486 ft 351 kts 53°
2026-04-22 18:02 40.90481 18.97934 15258 ft 349 kts 53°
2026-04-22 18:02 40.91710 19.00667 15006 ft 344 kts 53°
2026-04-22 18:02 40.92933 19.03387 14626 ft 343 kts 53°
2026-04-22 18:02 40.94150 19.06093 14263 ft 342 kts 53°
2026-04-22 18:03 40.95357 19.08789 13997 ft 337 kts 53°
2026-04-22 18:03 40.96496 19.11422 13935 ft 326 kts 53°
2026-04-22 18:03 40.97608 19.14003 13732 ft 319 kts 53°
2026-04-22 18:03 40.98690 19.16508 13411 ft 317 kts 53°
2026-04-22 18:04 40.99796 19.19067 13103 ft 314 kts 54°
2026-04-22 18:04 41.00871 19.21560 12800 ft 311 kts 54°
2026-04-22 18:04 41.01939 19.24037 12487 ft 308 kts 54°
2026-04-22 18:04 41.02996 19.26492 12199 ft 305 kts 55°
2026-04-22 18:05 41.04043 19.28925 11893 ft 303 kts 55°
2026-04-22 18:05 41.05086 19.31350 11509 ft 303 kts 56°
2026-04-22 18:05 41.06128 19.33776 11132 ft 303 kts 56°
2026-04-22 18:05 41.07168 19.36199 10765 ft 303 kts 57°
2026-04-22 18:06 41.08208 19.38625 10399 ft 302 kts 57°
2026-04-22 18:06 41.09243 19.41042 10038 ft 301 kts 58°
2026-04-22 18:06 41.10274 19.43454 9654 ft 300 kts 58°
2026-04-22 18:06 41.11301 19.45858 9249 ft 299 kts 58°
2026-04-22 18:07 41.12326 19.48257 8862 ft 299 kts 58°
2026-04-22 18:07 41.13342 19.50639 8452 ft 293 kts 58°
2026-04-22 18:07 41.14332 19.52960 8052 ft 285 kts 58°
2026-04-22 18:07 41.15310 19.55257 7608 ft 279 kts 58°
2026-04-22 18:08 41.16237 19.57435 7292 ft 271 kts 58°
2026-04-22 18:08 41.17118 19.59628 6982 ft 264 kts 67°
2026-04-22 18:08 41.17449 19.62024 6617 ft 266 kts 83°
2026-04-22 18:08 41.17613 19.64481 6227 ft 270 kts 83°
2026-04-22 18:09 41.17785 19.66942 5836 ft 272 kts 83°
2026-04-22 18:09 41.17968 19.69445 5413 ft 270 kts 83°
2026-04-22 18:09 41.18399 19.71818 4995 ft 262 kts 60°
2026-04-22 18:09 41.19551 19.73589 4646 ft 251 kts 32°
2026-04-22 18:10 41.21106 19.74491 4286 ft 240 kts 10°
2026-04-22 18:10 41.22745 19.74614 3944 ft 233 kts 355°
2026-04-22 18:10 41.24320 19.74422 3639 ft 222 kts 353°
2026-04-22 18:10 41.25813 19.74193 3328 ft 211 kts 352°
2026-04-22 18:11 41.27234 19.73980 3013 ft 199 kts 352°
2026-04-22 18:11 41.28561 19.73791 2739 ft 186 kts 353°
2026-04-22 18:11 41.29812 19.73618 2456 ft 175 kts 353°
2026-04-22 18:11 41.30981 19.73461 2205 ft 161 kts 351°
2026-04-22 18:12 41.32082 19.73312 1973 ft 157 kts 352°
2026-04-22 18:12 41.33166 19.73165 1757 ft 157 kts 352°
2026-04-22 18:12 41.33894 19.73068 1611 ft 159 kts 352°
2026-04-22 18:12 41.35159 19.72899 1346 ft 146 kts 352°
2026-04-22 18:13 41.36157 19.72763 1040 ft 144 kts 353°
2026-04-22 18:13 41.37182 19.72643 822 ft 152 kts 353°
2026-04-22 18:13 41.38245 19.72521 633 ft 153 kts 351°
2026-04-22 18:13 41.39302 19.72364 385 ft 154 kts 350°
2026-04-22 18:14 41.40365 19.72204 149 ft 151 kts 353°
2026-04-22 18:14 41.41303 19.72076 123 ft 112 kts 353°
2026-04-22 18:14 41.41881 19.72004 124 ft 63 kts 355°
2026-04-22 18:14 41.42172 19.71964 123 ft 22 kts 354°
2026-04-22 18:15 41.42275 19.71944 121 ft 11 kts 322°
2026-04-22 18:15 41.42284 19.71845 127 ft 11 kts 264°
2026-04-22 18:15 41.42276 19.71745 126 ft 11 kts 264°
2026-04-22 18:15 41.42268 19.71648 129 ft 10 kts 264°
2026-04-22 18:16 41.42253 19.71557 125 ft 10 kts 226°
2026-04-22 18:16 41.42184 19.71543 128 ft 10 kts 174°
2026-04-22 18:16 41.42118 19.71552 131 ft 10 kts 174°
2026-04-22 18:16 41.42053 19.71561 128 ft 9 kts 174°
2026-04-22 18:17 41.41989 19.71569 131 ft 9 kts 174°
2026-04-22 18:17 41.41946 19.71575 129 ft 3 kts 174°
2026-04-22 18:17 41.41924 19.71569 129 ft 3 kts 212°
2026-04-22 18:17 41.41915 19.71540 129 ft 4 kts 264°
2026-04-22 18:18 41.41913 19.71519 131 ft 1 kts 263°